This demonstration page uses our WeatherBlox Daily Observations layout. Learn more.

Left ArrowRight Arrow

36.17497, -115.13722

Hourly Observations for January 17, 2022

Temp ( °F °C ) Dew Point ( °F °C ) Humidity (%) Winds ( mph kmh ) Pressure ( in mb ) Visibility ( mi km ) Precip ( " mm )
12:53 am 00:53 Clear 44 6.7 18 -7.8 35 35 NNW 3 6 30.13 1020 10 16 0.00 0.00
1:53 am 01:53 Clear 45 7.2 18 -7.8 34 34 WNW 6 9 30.12 1020 10 16 0.00 0.00
2:53 am 02:53 Clear 44 6.7 18 -7.8 35 35 Calm 30.12 1020 10 16 0.00 0.00
3:53 am 03:53 Clear 44 6.7 16 -8.9 32 32 NW 7 11 30.11 1020 10 16 0.00 0.00
4:53 am 04:53 Clear 44 6.7 14 -10 30 30 NW 5 7 30.11 1020 10 16 0.00 0.00
5:53 am 05:53 Clear 42 5.6 17 -8.3 36 36 NNW 3 6 30.13 1020 10 16 0.00 0.00
6:53 am 06:53 Mostly Sunny 42 5.6 16 -8.9 35 35 Calm 30.14 1021 10 16 0.00 0.00
7:53 am 07:53 Sunny 42 5.6 21 -6.1 43 43 Calm 30.15 1021 10 16 0.00 0.00
8:53 am 08:53 Sunny 47 8.3 19 -7.2 33 33 Calm 30.17 1022 10 16 0.00 0.00
9:53 am 09:53 Sunny 51 10.6 18 -7.8 27 27 SE 3 6 30.17 1022 10 16 0.00 0.00
10:53 am 10:53 Sunny 55 12.8 17 -8.3 22 22 SE 5 7 30.15 1021 10 16 0.00 0.00
11:53 am 11:53 Sunny 57 13.9 16 -8.9 20 20 SE 7 11 30.11 1020 10 16 0.00 0.00
12:53 pm 12:53 Sunny 58 14.4 15 -9.4 18 18 VRB 5 7 30.09 1019 10 16 0.00 0.00
1:53 pm 13:53 Sunny 61 16.1 18 -7.8 19 19 E 6 9 30.06 1018 10 16 0.00 0.00
2:53 pm 14:53 Sunny 61 16.1 17 -8.3 18 18 ESE 5 7 30.06 1018 10 16 0.00 0.00
3:53 pm 15:53 Sunny 61 16.1 17 -8.3 18 18 Calm 30.05 1018 10 16 0.00 0.00
4:53 pm 16:53 Clear 59 15 17 -8.3 19 19 Calm 30.05 1018 10 16 0.00 0.00
5:53 pm 17:53 Clear 57 13.9 17 -8.3 21 21 Calm 30.06 1018 10 16 0.00 0.00
6:53 pm 18:53 Clear 53 11.7 20 -6.7 27 27 NW 3 6 30.07 1018 10 16 0.00 0.00
7:53 pm 19:53 Cloudy 52 11.1 21 -6.1 30 30 W 6 9 30.08 1019 10 16 0.00 0.00
8:53 pm 20:53 Cloudy 52 11.1 21 -6.1 30 30 NW 3 6 30.08 1019 10 16 0.00 0.00
9:53 pm 21:53 Cloudy 51 10.6 22 -5.6 32 32 NNW 5 7 30.08 1019 10 16 0.00 0.00
10:53 pm 22:53 Cloudy 50 10 22 -5.6 33 33 NW 5 7 30.07 1018 10 16 0.00 0.00
11:53 pm 23:53 Cloudy with Light Rain 51 10.6 24 -4.4 35 35 N 3 6 30.06 1018 10 16 0.00 0.00

Powered by AerisWeather